Location: Breungeshain
(50.5000°N, 9.2000°E)
Time: 08:23:51
(UTC+00:00)

ISS - Pass Details

Date: 24 May 2018
Orbit: 402 x 407 km, 51.6° (Epoch: 23 May)

Event Time Altitude Azimuth Distance (km) Brightness Sun altitude
Rises 20:50:50 0° 252° (WSW) 2,317 0.3 -11.4°
Reaches altitude 10° 20:52:54 10° 252° (WSW) 1,458 -0.8 -11.6°
Maximum altitude 20:56:11 85° 164° (SSE) 410 -3.9 -11.9°
Drops below altitude 10° 20:59:27 10° 76° (ENE) 1,460 -1.2 -12.2°
Sets 21:01:32 0° 76° (ENE) 2,321 -0.2 -12.4°
